TimePDT,TemperatureF,Dew PointF,Humidity,Sea Level PressureIn,VisibilityMPH,Wind Direction,Wind SpeedMPH,Gust SpeedMPH,PrecipitationIn,Events,Conditions,WindDirDegrees,DateUTC
12:15 AM,64.4,12.2,13,29.80,10.0,Calm,Calm,-,N/A,,Clear,0,2013-05-04 07:15:00
12:35 AM,62.6,15.8,16,29.79,10.0,North,3.5,-,N/A,,Clear,360,2013-05-04 07:35:00
12:55 AM,60.8,19.4,20,29.79,10.0,Calm,Calm,-,N/A,,Clear,0,2013-05-04 07:55:00
1:15 AM,59.0,19.4,22,29.78,10.0,Calm,Calm,-,N/A,,Clear,0,2013-05-04 08:15:00
1:35 AM,60.8,15.8,17,29.78,10.0,Calm,Calm,-,N/A,,Clear,0,2013-05-04 08:35:00
1:55 AM,62.6,15.8,16,29.77,10.0,Calm,Calm,-,N/A,,Clear,0,2013-05-04 08:55:00
2:15 AM,60.8,17.6,19,29.77,10.0,Calm,Calm,-,N/A,,Clear,0,2013-05-04 09:15:00
2:35 AM,59.0,19.4,22,29.76,10.0,Calm,Calm,-,N/A,,Clear,0,2013-05-04 09:35:00
2:55 AM,57.2,23.0,27,29.76,10.0,Calm,Calm,-,N/A,,Unknown,0,2013-05-04 09:55:00
3:15 AM,57.2,23.0,27,29.76,10.0,Calm,Calm,-,N/A,,Clear,0,2013-05-04 10:15:00
3:35 AM,57.2,26.6,31,29.76,10.0,Calm,Calm,-,N/A,,Clear,0,2013-05-04 10:35:00
3:55 AM,55.4,19.4,25,29.75,10.0,ENE,4.6,-,N/A,,Clear,60,2013-05-04 10:55:00
4:15 AM,57.2,17.6,21,29.75,10.0,NE,5.8,-,N/A,,Clear,50,2013-05-04 11:15:00
4:35 AM,57.2,19.4,23,29.74,10.0,Calm,Calm,-,N/A,,Clear,0,2013-05-04 11:35:00
4:55 AM,57.2,23.0,27,29.75,10.0,Calm,Calm,-,N/A,,Clear,0,2013-05-04 11:55:00
5:15 AM,57.2,17.6,21,29.75,10.0,Calm,Calm,-,N/A,,Clear,0,2013-05-04 12:15:00
5:35 AM,55.4,14.0,20,29.75,10.0,NNE,5.8,-,N/A,,Clear,20,2013-05-04 12:35:00
5:55 AM,57.2,10.4,16,29.75,10.0,North,6.9,-,N/A,,Clear,10,2013-05-04 12:55:00
6:15 AM,60.8,10.4,14,29.75,10.0,NNE,8.1,-,N/A,,Clear,20,2013-05-04 13:15:00
6:35 AM,62.6,8.6,12,29.76,10.0,Calm,Calm,-,N/A,,Clear,0,2013-05-04 13:35:00
7:15 AM,68.0,14.0,12,29.77,10.0,NNE,5.8,-,N/A,,Clear,30,2013-05-04 14:15:00
7:35 AM,71.6,10.4,9,29.77,10.0,NE,3.5,-,N/A,,Clear,50,2013-05-04 14:35:00
7:55 AM,73.4,8.6,8,29.77,10.0,Calm,Calm,-,N/A,,Clear,0,2013-05-04 14:55:00
8:15 AM,73.4,5.0,7,29.77,10.0,Calm,Calm,-,N/A,,Clear,0,2013-05-04 15:15:00
8:35 AM,71.6,5.0,7,29.77,10.0,Calm,Calm,-,N/A,,Clear,0,2013-05-04 15:35:00
8:55 AM,73.4,3.2,6,29.77,10.0,Calm,Calm,-,N/A,,Clear,0,2013-05-04 15:55:00
9:15 AM,75.2,6.8,7,29.77,10.0,Calm,Calm,-,N/A,Thunderstorm,Clear,0,2013-05-04 16:15:00
9:35 AM,77.0,6.8,7,29.76,10.0,Calm,Calm,-,N/A,Thunderstorm,Clear,0,2013-05-04 16:35:00
9:55 AM,77.0,5.0,6,29.76,10.0,ENE,5.8,-,N/A,,Clear,60,2013-05-04 16:55:00
10:15 AM,78.8,1.4,5,29.76,10.0,Calm,Calm,-,N/A,,Clear,0,2013-05-04 17:15:00
10:35 AM,80.6,-0.4,4,29.76,10.0,Calm,Calm,-,N/A,,Clear,0,2013-05-04 17:35:00
10:55 AM,80.6,-0.4,4,29.75,10.0,Calm,Calm,-,N/A,,Clear,0,2013-05-04 17:55:00
11:15 AM,82.4,-0.4,4,29.74,10.0,Calm,Calm,-,N/A,,Clear,0,2013-05-04 18:15:00
11:35 AM,82.4,-0.4,4,29.73,10.0,Calm,Calm,-,N/A,,Clear,0,2013-05-04 18:35:00
11:55 AM,82.4,1.4,4,29.72,10.0,NE,6.9,-,N/A,,Clear,40,2013-05-04 18:55:00
12:15 PM,86.0,3.2,4,29.71,10.0,ESE,9.2,-,N/A,,Clear,120,2013-05-04 19:15:00
12:35 PM,84.2,5.0,5,29.70,10.0,SSE,9.2,-,N/A,,Clear,160,2013-05-04 19:35:00
12:55 PM,87.8,5.0,4,29.69,10.0,SSE,16.1,25.3,N/A,,Clear,160,2013-05-04 19:55:00
1:15 PM,87.8,5.0,4,29.68,10.0,SSE,15.0,21.9,N/A,,Clear,150,2013-05-04 20:15:00
1:35 PM,87.8,6.8,5,29.67,10.0,SE,13.8,24.2,N/A,,Clear,140,2013-05-04 20:35:00
1:55 PM,89.6,5.0,4,29.66,10.0,SSE,19.6,25.3,N/A,,Clear,150,2013-05-04 20:55:00
2:15 PM,89.6,5.0,4,29.65,10.0,SSE,21.9,31.1,N/A,,Clear,150,2013-05-04 21:15:00
2:35 PM,89.6,5.0,4,29.64,10.0,SE,20.7,29.9,N/A,,Clear,140,2013-05-04 21:35:00
2:55 PM,89.6,6.8,4,29.62,10.0,ESE,25.3,32.2,N/A,,Clear,120,2013-05-04 21:55:00
3:15 PM,89.6,6.8,4,29.61,10.0,SE,24.2,35.7,N/A,,Clear,130,2013-05-04 22:15:00
3:35 PM,89.6,6.8,4,29.60,10.0,SSE,28.8,35.7,N/A,,Clear,160,2013-05-04 22:35:00
3:55 PM,89.6,6.8,4,29.60,10.0,SSE,23.0,36.8,N/A,,Clear,160,2013-05-04 22:55:00
4:15 PM,89.6,6.8,4,29.60,10.0,SSE,26.5,32.2,N/A,,Clear,150,2013-05-04 23:15:00
4:35 PM,87.8,6.8,5,29.59,10.0,SSE,23.0,34.5,N/A,,Clear,150,2013-05-04 23:35:00
4:55 PM,89.6,6.8,4,29.59,10.0,SSE,24.2,33.4,N/A,,Clear,150,2013-05-04 23:55:00
5:15 PM,86.0,6.8,5,29.60,10.0,SSE,24.2,33.4,N/A,,Clear,150,2013-05-05 00:15:00
5:35 PM,87.8,6.8,5,29.59,10.0,SSE,23.0,29.9,N/A,,Clear,150,2013-05-05 00:35:00
5:55 PM,86.0,6.8,5,29.58,10.0,SE,26.5,36.8,N/A,,Clear,140,2013-05-05 00:55:00
6:15 PM,86.0,6.8,5,29.59,10.0,SSE,24.2,32.2,N/A,,Clear,150,2013-05-05 01:15:00
6:35 PM,86.0,6.8,5,29.59,10.0,SSE,21.9,31.1,N/A,,Clear,160,2013-05-05 01:35:00
6:55 PM,86.0,5.0,5,29.60,10.0,South,15.0,25.3,N/A,,Clear,180,2013-05-05 01:55:00
7:15 PM,84.2,3.2,5,29.60,10.0,South,16.1,19.6,N/A,,Clear,190,2013-05-05 02:15:00
7:35 PM,82.4,3.2,5,29.61,10.0,South,13.8,-,N/A,,Clear,190,2013-05-05 02:35:00
7:55 PM,82.4,3.2,5,29.62,10.0,South,10.4,18.4,N/A,,Clear,180,2013-05-05 02:55:00
8:15 PM,80.6,5.0,6,29.62,10.0,South,13.8,-,N/A,,Clear,170,2013-05-05 03:15:00
8:35 PM,80.6,5.0,6,29.63,10.0,South,10.4,-,N/A,Thunderstorm,Clear,170,2013-05-05 03:35:00
8:55 PM,80.6,5.0,6,29.64,10.0,SSE,10.4,17.3,N/A,,Clear,160,2013-05-05 03:55:00
9:15 PM,78.8,5.0,6,29.64,10.0,South,11.5,-,N/A,,Clear,170,2013-05-05 04:15:00
9:35 PM,78.8,5.0,6,29.65,10.0,South,10.4,-,N/A,,Clear,180,2013-05-05 04:35:00
9:55 PM,77.0,5.0,6,29.66,10.0,South,8.1,-,N/A,,Clear,170,2013-05-05 04:55:00
10:15 PM,77.0,6.8,7,29.67,10.0,South,6.9,-,N/A,,Clear,170,2013-05-05 05:15:00
10:35 PM,77.0,8.6,7,29.67,10.0,South,9.2,-,N/A,,Clear,170,2013-05-05 05:35:00
10:55 PM,75.2,6.8,7,29.67,10.0,SSE,3.5,-,N/A,,Clear,160,2013-05-05 05:55:00
11:15 PM,75.2,6.8,7,29.67,10.0,South,8.1,-,N/A,,Clear,170,2013-05-05 06:15:00
11:35 PM,73.4,8.6,8,29.67,10.0,South,6.9,-,N/A,,Clear,170,2013-05-05 06:35:00
11:55 PM,73.4,8.6,8,29.67,10.0,SSW,8.1,-,N/A,,Clear,200,2013-05-05 06:55:00